Location: Delawanna
(40.8290°N, 74.1410°W)
Time: 22:17:16
(UTC+00:00)

Daily predictions for brighter satellites

Satellite Brightness Start Highest point End
(mag) Time Altitude Azimuth Time Altitude Azimuth Time Altitude Azimuth
AQUARIUS 4.2 22:25:04 10° SSE 22:29:33 85° ENE 22:34:05 10° NNW
USA 234 3.3 22:23:06 10° SE 22:29:37 77° NE 22:36:09 10° NW
ERBS 2.2 22:27:23 10° SW 22:30:43 85° SE 22:34:03 10° NE
Cosmos 2154 Rocket 4.0 22:25:15 10° S 22:31:31 76° E 22:37:46 10° N
COSMO-SKYMED 1 3.3 22:27:49 10° NNE 22:31:46 33° E 22:35:41 10° SSE
DELTA 2 R/B (1) 3.8 22:27:09 10° WSW 22:32:42 69° SSE 22:38:16 10° E
Cosmos 1758 Rocket 4.2 22:30:04 10° SSE 22:33:56 34° E 22:37:51 10° NNE
Atlas Centaur 2 4.1 22:32:21 10° S 22:34:09 12° SSE 22:36:05 10° SE
Cosmos 1455 3.8 22:32:53 10° NE 22:35:14 15° ENE 22:37:33 10° ESE
Cosmos 1125 Rocket 3.8 22:30:41 10° SSW 22:35:52 72° WNW 22:41:05 10° NNE
Cosmos 1626 Rocket 4.0 22:34:10 10° SSW 22:38:28 66° W 22:42:46 10° N
Cosmos 1271 Rocket 4.2 22:35:27 10° SW 22:38:57 38° WNW 22:42:29 10° N
Cosmos 2237 Rocket 2.4 22:36:06 10° NNW 22:41:35 50° ENE 22:47:01 10° SE
NOAA 12 4.1 22:38:20 10° SSE 22:43:34 82° ENE 22:48:49 10° NNW
Envisat 3.0 22:40:38 10° SSE 22:45:42 79° ENE 22:50:48 10° N
Cosmos 2333 Rocket 3.3 22:42:16 10° NNW 22:47:47 51° WSW 22:53:14 10° S
CSL-04 Rocket 4.3 22:44:16 10° SE 22:49:06 33° ENE 22:54:00 10° N
Okean-O 2.6 22:44:51 10° SSE 22:49:15 72° ENE 22:53:41 10° N
Cosmos 1340 Rocket 2.8 22:47:21 10° N 22:51:21 87° WSW 22:55:20 10° S
ATLAS 5 CENTAUR R/B 4.3 22:52:11 10° NW 22:53:04 10° NNW 22:53:58 10° NNW
Shenzhou-11 Module 2.1 22:54:10 10° SW 22:56:47 50° SSE 22:58:27 19° E
Cosmos 2366 rocket 4.4 22:51:13 10° SSE 22:56:51 38° E 23:02:33 10° NNE
Cosmos 1825 Rocket 3.6 22:54:16 10° S 22:58:32 57° E 23:02:47 10° NNE
Iridium 96 4.3 22:57:54 10° NNE 23:00:05 30° E 23:02:18 10° SSE
NOSS 0 Rocket 4.1 22:54:13 10° NNW 23:00:27 80° WSW 23:06:37 10° SSE
Cosmos 1269 Rocket 4.0 22:56:14 10° NNW 23:01:32 78° ENE 23:06:48 10° SSE
Cosmos 962 Rocket 4.4 22:57:15 10° S 23:03:21 85° E 23:09:32 10° N
SL-16 R/B 3.0 22:58:56 10° N 23:03:53 30° NE 23:08:48 10° ESE
ADEOS Rocket 4.0 23:01:30 10° NE 23:07:24 31° E 23:13:44 10° SSE
Cosmos 2219 3.5 23:01:52 10° SSW 23:07:27 70° WNW 23:13:05 10° NNE
Meteor 1-21 Rocket 4.2 23:03:15 10° S 23:08:49 83° E 23:14:31 10° NNE
Cosmos 2082 4.0 23:04:21 10° S 23:09:41 46° ESE 23:14:45 11° NE
CZ-4C R/B 3.6 23:09:32 10° NW 23:16:54 63° WSW 23:25:07 10° SSE
DELTA 2 R/B(2) 3.5 23:16:54 10° W 23:18:59 62° S 23:19:21 47° SE
Cosmos 2297 Rocket 2.3 23:13:30 10° SSW 23:19:09 80° WNW 23:24:51 10° NNE
SKYMED 2 3.9 23:15:33 10° N 23:19:52 70° WNW 23:24:11 10° SSW
Cosmos 1939 Rocket 3.1 23:16:48 10° SE 23:20:30 43° ENE 23:24:17 10° N
USA 116 3.1 23:18:27 18° NNE 23:20:36 56° ESE 23:23:38 10° S
FengYun 1-2 T 4.5 23:15:39 10° S 23:21:16 76° WSW 23:26:57 10° NNW
Cosmos 1980 4.0 23:18:33 10° NNW 23:24:13 70° WSW 23:29:50 10° SSE
Cosmos 1727 Rocket 4.2 23:20:06 10° N 23:25:58 43° ENE 23:31:46 10° SSE
FALCON 9 R/B 4.3 23:10:33 10° SW 23:28:06 31° S 23:33:12 16° ESE
Cosmos 1703 3.2 23:24:36 10° S 23:28:30 62° E 23:31:57 13° NNE
Ariane Rocket 3.6 23:24:47 10° SE 23:29:13 32° ENE 23:33:41 10° N
SL-8 R/B 3.7 23:25:11 10° WSW 23:30:00 78° NNW 23:32:26 29° NE
Cosmos 2227 Rocket 2.5 23:26:04 10° SSW 23:31:42 70° WNW 23:37:22 10° NNE
SL-8 Rocket 4.0 23:26:15 10° S 23:32:34 87° W 23:38:53 10° N
NOAA 11 4.1 23:27:33 10° SSE 23:33:02 76° ENE 23:38:32 10° N
YAOGAN 1 2.5 23:31:11 10° SSE 23:35:30 88° WSW 23:39:52 10° NNW
Cosmos-2242 3.2 23:32:13 10° NNW 23:36:31 72° W 23:40:46 10° S
ISS -3.1 23:36:02 10° WSW 23:39:18 48° NNW 23:40:05 38° N
H-2A ROCKET BODY 3.8 23:36:22 10° WSW 23:42:31 20° SSW 23:45:21 10° SSE
Cosmos 44 3.3 23:40:34 10° SW 23:45:11 69° WNW 23:47:33 27° NNE
Meteor 2-10 Rocket 3.6 23:43:00 10° NNW 23:48:19 79° W 23:53:24 10° S
H-2A R/B 4.0 23:54:32 13° NNE 23:54:32 13° NNE 23:55:15 10° N
ATLAS CENTAUR R/B 3.2 23:48:40 10° N 23:49:59 17° N 23:49:59 17° N
CZ-4 R/B 2.8 23:48:42 10° SSW 23:52:29 40° W 23:56:22 10° NNW
